Location: Degersen
(52.2871°N, 9.5716°E)
Time: 05:46:56
(UTC+00:00)

USA 32 - Pass Details

Date: 20 January 2026
Orbit: 774 x 780 km, 85.0° (Epoch: 18 February)

Event Time Altitude Azimuth Distance (km) Brightness Sun altitude
Rises 05:01:17 0° 186° (S) 3,254 7.3 -20.5°
Reaches altitude 10° 05:03:37 10° 187° (S) 2,331 6.5 -20.2°
Maximum altitude 05:08:52 85° 277° (W) 791 3.9 -19.4°
Drops below altitude 10° 05:14:09 10° 6° (N) 2,347 6.5 -18.6°
Sets 05:16:31 0° 7° (N) 3,279 7.3 -18.2°
